TimeEST,TemperatureF,Dew PointF,Humidity,Sea Level PressureIn,VisibilityMPH,Wind Direction,Wind SpeedMPH,Gust SpeedMPH,PrecipitationIn,Events,Conditions,WindDirDegrees,DateUTC
12:15 AM,37.4,30.2,75,30.11,10.0,Calm,Calm,-,N/A,,Clear,0,2012-01-20 05:15:00
12:35 AM,37.4,30.2,75,30.12,10.0,WSW,4.6,-,N/A,,Clear,250,2012-01-20 05:35:00
12:55 AM,35.6,28.4,75,30.11,10.0,Calm,Calm,-,N/A,,Clear,0,2012-01-20 05:55:00
1:15 AM,33.8,28.4,81,30.11,10.0,SW,6.9,-,N/A,,Clear,230,2012-01-20 06:15:00
1:35 AM,35.6,30.2,81,30.10,10.0,SW,6.9,-,N/A,,Clear,220,2012-01-20 06:35:00
1:55 AM,35.6,28.4,75,30.10,10.0,SW,4.6,-,N/A,,Clear,230,2012-01-20 06:55:00
2:15 AM,35.6,28.4,75,30.09,10.0,SW,5.8,-,N/A,,Clear,230,2012-01-20 07:15:00
2:35 AM,35.6,30.2,81,30.09,10.0,WSW,5.8,-,N/A,,Clear,240,2012-01-20 07:35:00
2:55 AM,35.6,30.2,81,30.09,10.0,WSW,5.8,-,N/A,,Clear,250,2012-01-20 07:55:00
3:15 AM,35.6,30.2,81,30.09,10.0,WSW,4.6,-,N/A,,Clear,250,2012-01-20 08:15:00
3:35 AM,35.6,30.2,81,30.10,10.0,WSW,4.6,-,N/A,,Clear,250,2012-01-20 08:35:00
3:55 AM,35.6,30.2,81,30.08,10.0,SW,6.9,-,N/A,,Clear,230,2012-01-20 08:55:00
4:15 AM,35.6,30.2,81,30.08,10.0,SW,5.8,-,N/A,,Clear,230,2012-01-20 09:15:00
4:35 AM,35.6,30.2,81,30.08,10.0,WSW,6.9,-,N/A,,Clear,240,2012-01-20 09:35:00
4:55 AM,37.4,32.0,81,30.08,10.0,WSW,8.1,-,N/A,,Clear,240,2012-01-20 09:55:00
5:15 AM,37.4,30.2,75,30.08,10.0,WSW,6.9,-,N/A,,Clear,250,2012-01-20 10:15:00
5:35 AM,37.4,30.2,75,30.08,10.0,WSW,6.9,-,N/A,,Clear,240,2012-01-20 10:35:00
6:15 AM,35.6,30.2,81,30.10,10.0,WSW,6.9,-,N/A,,Clear,240,2012-01-20 11:15:00
6:35 AM,35.6,30.2,81,30.11,10.0,West,4.6,-,N/A,,Clear,260,2012-01-20 11:35:00
6:55 AM,35.6,30.2,81,30.11,10.0,WSW,5.8,-,N/A,,Clear,240,2012-01-20 11:55:00
7:15 AM,35.6,30.2,81,30.12,10.0,WSW,3.5,-,N/A,,Clear,250,2012-01-20 12:15:00
7:35 AM,35.6,30.2,81,30.12,10.0,West,3.5,-,N/A,,Clear,260,2012-01-20 12:35:00
7:55 AM,35.6,30.2,81,30.13,10.0,Calm,Calm,-,N/A,,Clear,0,2012-01-20 12:55:00
8:15 AM,37.4,30.2,75,30.14,10.0,Calm,Calm,-,N/A,,Clear,0,2012-01-20 13:15:00
8:35 AM,39.2,33.8,81,30.14,10.0,Calm,Calm,-,N/A,,Clear,0,2012-01-20 13:35:00
8:55 AM,42.8,33.8,70,30.15,10.0,SW,3.5,-,N/A,,Clear,230,2012-01-20 13:55:00
9:15 AM,42.8,33.8,70,30.16,10.0,West,3.5,-,N/A,,Scattered Clouds,280,2012-01-20 14:15:00
9:35 AM,42.8,32.0,66,30.17,10.0,Calm,Calm,-,N/A,,Mostly Cloudy,0,2012-01-20 14:35:00
9:55 AM,44.6,33.8,66,30.18,10.0,Calm,Calm,-,N/A,,Partly Cloudy,0,2012-01-20 14:55:00
10:15 AM,44.6,33.8,66,30.18,10.0,Calm,Calm,-,N/A,,Mostly Cloudy,0,2012-01-20 15:15:00
10:35 AM,46.4,33.8,62,30.18,10.0,WSW,4.6,-,N/A,,Mostly Cloudy,250,2012-01-20 15:35:00
10:55 AM,48.2,33.8,58,30.18,10.0,Calm,Calm,-,N/A,,Mostly Cloudy,0,2012-01-20 15:55:00
11:15 AM,48.2,33.8,58,30.17,10.0,Calm,Calm,-,N/A,,Overcast,0,2012-01-20 16:15:00
11:35 AM,48.2,35.6,62,30.17,10.0,Calm,Calm,-,N/A,,Overcast,0,2012-01-20 16:35:00
11:55 AM,51.8,35.6,54,30.15,10.0,Calm,Calm,-,N/A,,Overcast,0,2012-01-20 16:55:00
12:15 PM,51.8,35.6,54,30.14,10.0,Calm,Calm,-,N/A,,Overcast,0,2012-01-20 17:15:00
12:35 PM,51.8,35.6,54,30.14,10.0,South,3.5,-,N/A,,Overcast,180,2012-01-20 17:35:00
12:55 PM,51.8,35.6,54,30.14,10.0,SSW,4.6,-,N/A,,Overcast,210,2012-01-20 17:55:00
1:15 PM,51.8,35.6,54,30.13,10.0,Calm,Calm,-,N/A,,Overcast,0,2012-01-20 18:15:00
1:35 PM,51.8,35.6,54,30.13,10.0,Calm,Calm,-,N/A,,Overcast,0,2012-01-20 18:35:00
1:55 PM,51.8,37.4,58,30.13,10.0,Calm,Calm,-,N/A,,Overcast,0,2012-01-20 18:55:00
2:15 PM,50.0,37.4,62,30.13,9.0,SSE,3.5,-,N/A,,Overcast,160,2012-01-20 19:15:00
2:35 PM,48.2,37.4,66,30.14,7.0,Calm,Calm,-,N/A,,Overcast,0,2012-01-20 19:35:00
2:55 PM,48.2,39.2,71,30.14,8.0,Calm,Calm,-,N/A,,Overcast,0,2012-01-20 19:55:00
3:15 PM,46.4,39.2,76,30.14,9.0,Calm,Calm,-,N/A,,Overcast,0,2012-01-20 20:15:00
3:35 PM,46.4,39.2,76,30.13,10.0,SE,5.8,-,N/A,,Overcast,130,2012-01-20 20:35:00
3:55 PM,44.6,39.2,81,30.14,10.0,SE,4.6,-,N/A,,Overcast,130,2012-01-20 20:55:00
4:15 PM,44.6,39.2,81,30.14,10.0,Calm,Calm,-,0.01,,Overcast,0,2012-01-20 21:15:00
4:55 PM,44.6,39.2,81,30.14,9.0,Calm,Calm,-,0.01,,Overcast,0,2012-01-20 21:55:00
5:15 PM,44.6,39.2,81,30.14,10.0,Calm,Calm,-,N/A,,Overcast,0,2012-01-20 22:15:00
5:35 PM,44.6,39.2,81,30.14,9.0,ESE,3.5,-,N/A,,Overcast,110,2012-01-20 22:35:00
5:55 PM,44.6,39.2,81,30.15,8.0,Calm,Calm,-,N/A,,Overcast,0,2012-01-20 22:55:00
6:15 PM,44.6,39.2,81,30.14,5.0,Calm,Calm,-,0.01,,Overcast,0,2012-01-20 23:15:00
6:35 PM,44.6,39.2,81,30.15,6.0,Calm,Calm,-,0.01,,Overcast,0,2012-01-20 23:35:00
6:55 PM,44.6,39.2,81,30.15,5.0,Calm,Calm,-,0.01,,Overcast,0,2012-01-20 23:55:00
7:35 PM,44.6,41.0,87,30.14,3.0,ENE,4.6,-,0.01,,Overcast,70,2012-01-21 00:35:00
7:55 PM,44.6,41.0,87,30.15,3.0,Calm,Calm,-,0.01,,Overcast,0,2012-01-21 00:55:00
8:15 PM,44.6,41.0,87,30.14,4.0,East,4.6,-,N/A,,Overcast,100,2012-01-21 01:15:00
8:35 PM,44.6,41.0,87,30.14,3.0,East,4.6,-,N/A,,Overcast,100,2012-01-21 01:35:00
8:55 PM,44.6,41.0,87,30.13,2.5,Calm,Calm,-,N/A,,Overcast,0,2012-01-21 01:55:00
9:15 PM,44.6,41.0,87,30.13,3.0,Calm,Calm,-,N/A,,Overcast,0,2012-01-21 02:15:00
9:35 PM,44.6,41.0,87,30.13,4.0,Calm,Calm,-,N/A,,Overcast,0,2012-01-21 02:35:00
9:55 PM,44.6,39.2,81,30.14,5.0,Calm,Calm,-,N/A,,Overcast,0,2012-01-21 02:55:00
10:15 PM,44.6,41.0,87,30.13,5.0,East,3.5,-,N/A,,Overcast,80,2012-01-21 03:15:00
10:35 PM,44.6,41.0,87,30.12,5.0,Calm,Calm,-,0.02,,Overcast,0,2012-01-21 03:35:00
10:55 PM,44.6,41.0,87,30.12,5.0,Calm,Calm,-,0.02,,Overcast,0,2012-01-21 03:55:00
11:15 PM,44.6,41.0,87,30.12,3.0,Calm,Calm,-,0.03,,Overcast,0,2012-01-21 04:15:00
11:35 PM,44.6,41.0,87,30.11,3.0,Calm,Calm,-,0.06,,Overcast,0,2012-01-21 04:35:00
11:55 PM,44.6,42.8,93,30.10,5.0,Calm,Calm,-,0.07,,Overcast,0,2012-01-21 04:55:00